weather.gov     
National Weather Service

Terminal Aerodrome Forecast
NWS Homepage
This page is being discontinued on March 12, 2014.
The same data is available at this site. Please update your bookmarks.
Thank you, and we apologize for the inconvenience.
Please send an email to SR-SRH.Webmaster@noaa.gov with any concerns.


Current Version
Previous Version:    01  02  03  04  05  06  07  08  09  10  11  12  13  14  15  16  17  18  19  20  21  22  23  24  25  26  27  
[Printable]
252
FTUS44 KOUN 231136
TAFSPS
TAF
KSPS 231136Z 2312/2412 16012KT P6SM SKC
     FM231500 17017G25KT P6SM FEW060 SCT200
     FM240000 15019G27KT P6SM BKN120 PROB30 2402/2406 2SM TSRA
      BKN030CB
     FM240900 18017G25KT P6SM BKN020=




252
FTUS44 KOUN 231136
TAFSPS
TAF
KSPS 231136Z 2312/2412 16012KT P6SM SKC
     FM231500 17017G25KT P6SM FEW060 SCT200
     FM240000 15019G27KT P6SM BKN120 PROB30 2402/2406 2SM TSRA
      BKN030CB
     FM240900 18017G25KT P6SM BKN020=


U.S. Dept. of Commerce
NOAA National Weather Service
1325 East West Highway
Silver Spring, MD 20910
E-mail: w-nws.webmaster@noaa.gov
Page last modified: May 16, 2007
NATIONAL WEATHER SERVICE: for Safety, for Work, for Fun - FOR LIFE